Voltar ao catálogo

COSMOS 970 DEB

AtivoLEO
NORAD 65007·DEBRIS·🇷🇺 Russia

Lançado Dec 21, 1977 de Baikonur Cosmodrome

Loading…

Próximas Passagens (próximas 24 horas)

TLE

AtualizadoSource: Space-Track

Época: Sep 14, 2026, 10:10 UTC

1 65007U 77121DU  26257.42429782  .00000116  00000-0  21157-3 0  9993
2 65007  65.8382 237.0551 0122209 116.2138 323.5678 13.69906392640320

Acompanhe COSMOS 970 DEB em tempo real com AllMySat

Download on the App Store